Other Public Products
Issued by NWS Grand Forks, ND

Home | Current Version | Previous Version | Text Only | Print | Product List | Glossary Off
Versions: 1 2 3 4 5 6 7 8 9 10 11 12 13 14 15 16 17 18 19 20 21 22 23 24 25 26 27 28 29 30 31 32 33 34 35 36 37 38 39 40 41 42 43 44 45 46 47 48 49 50

000
FPUS83 KFGF 290310
OPUFGF
PRAIRIE TO PINES WEATHER ROUNDUP
NATIONAL WEATHER SERVICE EASTERN NORTH DAKOTA/GRAND FORKS ND
1000 PM CDT SUN AUG 28 2016

 **SATELLITE DATA USED TO AUGMENT SKY COVER AT AUTOMATED STATIONS**
 *****  WEATHER ACROSS EASTERN NORTH DAKOTA  *****

CITY           SKY/WX    TMP DP  RH WIND       PRES   REMARKS
GRAND FORKS    CLOUDY    78  69  73 SE13      29.93R
GRAND FORKS AF CLOUDY    73  69  88 SE8       29.93R
GRAND CITY NWS   N/A     75 N/A N/A SE13        N/A
BUXTON           N/A     77  76  97 E9          N/A
DEVILS LAKE    CLEAR     71  69  93 E3        29.95R
FARGO          CLOUDY    82  73  74 SE15G23   29.94R
WAHPETON ARPT  CLOUDY    77  70  78 SE14G20   29.97R
$$

 *****  WEATHER ACROSS CENTRAL AND WESTERN NORTH DAKOTA  *****

CITY           SKY/WX    TMP DP  RH WIND       PRES   REMARKS
JAMESTOWN      CLEAR     72  70  93 S5        29.93S
BISMARCK       CLEAR     70  62  76 E6        29.96R
MINOT          CLEAR     72  54  53 NW14      30.01R
MINOT AFB      CLEAR     70  55  58 NW10      30.01R
GARRISON         N/A     68  53  58 N10       30.01R
WILLISTON      CLEAR     70  48  45 NE5       30.08R
DICKINSON      CLOUDY    75  44  33 N10       30.04R
HETTINGER      CLEAR     79  44  28 N14       30.05R
$$

 *****  OTHER OBSERVATIONS NORTHEAST NORTH DAKOTA  *****

CITY           SKY/WX    TMP DP  RH WIND       PRES   REMARKS
WALHALLA       NOT AVBL
LANGDON        FAIR      70  68  94 E6        29.98R
CAVALIER       MOCLDY    73  66  78 E8        29.96R
GRAFTON        MOCLDY    73  70  88 E9        29.95R
CANDO          NOT AVBL
FORT TOTTEN      N/A     74  67  78 SE6       29.95S
ROLLA          MOCLDY    72  64  78 N9        30.01R
RUGBY          FAIR      72  66  83 W9        29.95R
 ***** THE ABOVE OBSERVATIONS ARE NON NWS ARE NOT QUALITY
        CONTROLLED AND MAY MIS-REPORT RAIN FOR SNOW...
$$

 *****  OTHER OBSERVATIONS SOUTHEAST NORTH DAKOTA *****

CITY           SKY/WX    TMP DP  RH WIND       PRES   REMARKS
COOPERSTOWN    NOT AVBL
VALLEY CITY    FAIR      75  75 100 S6        29.95S
OAKES            N/A    N/A N/A N/A MISG        N/A
GWINNER        FAIR      77  72  83 S8        29.95S
SHEYENNE NWR     N/A     79  72  80 S8        29.95S
BUFFALO          N/A     80  71  75 S10         N/A
WYNDMERE       NOT AVBL
 ***** THE ABOVE OBSERVATIONS ARE NON NWS ARE NOT QUALITY
       CONTROLLED AND MAY MIS-REPORT RAIN FOR SNOW...
$$

  *****  WEATHER ACROSS NORTHERN MINNESOTA  *****

CITY           SKY/WX    TMP DP  RH WIND       PRES   REMARKS
FLAG ISLAND    CLOUDY    66  63  88 SE6       30.02F
WARROAD        CLOUDY    68  64  88 SE9       30.02S
ROSEAU         CLEAR     70  64  83 SE15      30.01R
HALLOCK        MOCLDY    72  66  83 E15G21    29.96S
THF RVR FALLS  CLOUDY    73  68  84 E15       29.98R
HALSTAD          N/A     79  73  82 SE3         N/A
FOSSTON        CLOUDY    72  70  94 S15       30.02R
BAUDETTE       CLOUDY    62  59  90 SE14      30.04F
WASKISH        CLOUDY    70  64  83 NE15G23   30.05F THUNDER
CROOKSTON      CLOUDY    72  64  78 SE18      29.96R
$$
  *****  WEATHER ACROSS CENTRAL AND WEST MINNESOTA  *****

CITY           SKY/WX    TMP DP  RH WIND       PRES   REMARKS
BEMIDJI        CLOUDY    72  68  88 SE12      30.06R
PARK RAPIDS    CLOUDY    76  70  82 SE8       30.07R
WADENA         CLEAR     73  66  78 SE8       30.07R
DETROIT LAKES  CLOUDY    77  70  78 S13G18    30.03S
MOORHEAD       CLOUDY    79  73  83 SE14G20   29.96R
FERGUS FALLS   CLOUDY    77  72  83 S14       30.01R
ELBOW LAKE     FAIR      75  73  91 SE16      30.01F
MORRIS MN      CLOUDY    75  73  94 SE8       30.02F
STAPLES        CLEAR     73  66  78 SE6       30.08R
WHEATON        NOT AVBL
$$
  *****  WEATHER ELSEWHERE ACROSS MINNESOTA  *****

CITY           SKY/WX    TMP DP  RH WIND       PRES   REMARKS
DULUTH         MOCLDY    63  61  93 E7        30.17S
INTRNTL FALLS  TSTM      65  65 100 W3        30.12R FOG
ELY            CLOUDY    66  59  77 S5        30.17R
CLOQUET        PTCLDY    63  61  94 E5        30.16S
BRAINERD       CLEAR     72  69  90 SE7       30.10R
HIBBING        PTCLDY    64  62  93 SE7       30.15R
ALEXANDRIA     CLOUDY    75  69  81 S15       30.07S
SAINT CLOUD    CLEAR     72  70  93 SE7       30.09S
MINNEAPOLIS    CLEAR     75  67  76 SE8       30.12R
$$

  *****  WEATHER ACROSS SOUTH DAKOTA  *****

CITY           SKY/WX    TMP DP  RH WIND       PRES   REMARKS
SIOUX FALLS    PTCLDY    81  70  69 S16G24    30.09R
BROOKINGS        N/A    N/A N/A N/A MISG        N/A
WATERTOWN      CLEAR     76  70  82 S13       30.04R
HURON          PTCLDY    79  67  66 S14       30.00R
SISSETON         N/A     77  73  87 S12       29.97S
ABERDEEN       CLOUDY    81  67  62 S15       29.97R
MITCHELL       PTCLDY    81  68  64 S14       30.04R
PIERRE         CLEAR     78  59  51 S8        29.96R
MOBRIDGE       CLEAR     74  55  51 S5        29.94R
RAPID CITY     CLEAR     71  50  47 NE13      30.04R
$$

  *****  SOME WEATHER IN NEARBY STATES *****

CITY           SKY/WX    TMP DP  RH WIND       PRES   REMARKS
GLASGOW MT     CLOUDY    69  48  47 N6        30.10R
GREAT FALLS MT PTCLDY    65  45  48 NE12      30.18R
CHEYENNE WY    CLOUDY    66  43  43 SE15      30.28R
SCOTTSBLUFF NE MOCLDY    71  56  58 CALM      30.11R
OMAHA NE       MOCLDY    74  66  76 S7        30.09F
DES MOINES IA  CLOUDY    75  69  81 E6        30.14R
DAVENPORT IA   LGT RAIN  71  69  93 E3        30.17R
CHICAGO IL     MOCLDY    73  69  87 E6        30.21R
EAU CLAIRE WI  CLEAR     71  66  84 S6        30.16S
LA CROSSE WI   CLEAR     74  70  87 SE7       30.16S
$$

  *****  SOME NATIONAL WEATHER *****

CITY           SKY/WX    TMP DP  RH WIND       PRES   REMARKS
LA GUARDIA NY  PTCLDY    77  67  71 S10       30.16R
RALEIGH NC     CLOUDY    80  68  66 E7        30.14R
ATLANTA GA     MOCLDY    83  70  64 E12       30.12R
NEW ORLEANS LA MOCLDY    82  75  79 NE8       29.98R
OKLAHOMA CITY  PTCLDY    77  66  68 S6        30.09R
ALBUQUERQUE NM PTCLDY    71  42  35 NW5       30.22R
SALT LAKE CITY PTCLDY    78  35  21 N6        30.13R
LOS ANGELES CA CLEAR     69  59  70 SW10      29.94R
BOISE ID       PTCLDY    82  42  24 CALM      30.04R
SEATTLE WA     MOCLDY    63  51  65 NW7       30.05S
$$

*** WEATHER ACROSS MANITOBA...SASKATCHEWAN AND ONTARIO ***
                ***ONTARIO***

CITY           SKY/WX    TMP DP  RH WIND       PRES   REMARKS
GERALDTON      CLEAR     59  55  88 NW2       30.20S
THUNDER BAY    CLEAR     57  57 100 NE3       30.19R
SIOUX LOOKOUT  PTCLDY    59  57  94 SE3       30.13R
TORONTO        CLEAR     72  61  68 NW10      30.18R
BIG TROUT LK   CLEAR     66  59  77 SW5       30.07S
PICKLE LAKE    NOT AVBL
DRYDEN         CLEAR     64  61  88 SE12      30.11S
KENORA         PTCLDY    66  63  88 SE9       30.07S
$$
                *** MANITOBA***

CITY           SKY/WX    TMP DP  RH WIND       PRES   REMARKS
BRANDON        MOCLDY    64  61  88 NW6       29.98R
DAUPHIN        CLEAR     61  55  82 SW6       29.96R
ISLAND LAKE    CLOUDY    70  57  64 SE14      29.96S
PILOT MOUND      N/A     72  66  83 N6          N/A
THE PAS        PTCLDY    64  55  72 W13G20    29.89R
THOMPSON       NOT AVBL
WINNIPEG       MOCLDY    72  64  78 S16G24    29.95R
LYNN LAKE      MOCLDY    57  55  94 MISG      29.78R
CHURCHILL      CLOUDY    50  48  93 E16G22    29.98S
GILLAM         CLOUDY    70  57  64 SE6       29.91F
$$
                ***SASKATCHEWAN***

CITY           SKY/WX    TMP DP  RH WIND       PRES   REMARKS
ESTEVAN        PTCLDY    61  50  67 W7        30.07R
KINDERSLEY     PTCLDY    50  43  76 N6        30.19R
LLOYDMINSTER   PTCLDY    43  39  87 W8        30.16R
PRINCE ALBERT  MOCLDY    54  45  71 NW14G24   30.08R
REGINA         PTCLDY    55  46  71 NW10      30.13R
YORKTON        CLEAR     61  50  67 W14       30.04R  C1F1C2F2C3F3C4F4C5F5C6F6C7F7C8F8C9F9CaFaCbFbCcFcCdFdCe!



USA.gov is the U.S. government's official web portal to all federal, state and local government web resources and services.